Home > Weather > Chongqing > Past weeks

Flag for China Past Weather in Chongqing, Chongqing Municipality, China — Yesterday and Last 2 Weeks

Now
68 °F

Light rain. Partly sunny.


Feels Like: 68 °F
Forecast: 72 / 80 °F
Wind: 6 mph from Northeast

Location: Chongqing Airport

Current Time: Aug 30, 2016 at 1:20:43 PM

Latest Report: Aug 30, 2016 at 12:00 PM


Visibility: 6 mi

Pressure: 29.92 "Hg

Humidity: 88%

Dew Point: 64 °F

Location of ChongqingLocation

Past Weather in Chongqing — Graph

°F

Chongqing Temperature Yesterday

Maximum temperature yesterday: 90 °F (at 2:00 PM)
Minimum temperature yesterday: 73 °F (at 2:00 AM)
Average temperature yesterday: 79 °F

High & Low Weather Summary for the Past Weeks

 TemperatureHumidityPressure
High106 °F (Aug 25, 4:00 PM)94% (Aug 27, 12:00 PM)30.01 "Hg (Aug 27, 12:00 PM)
Low68 °F (Aug 30, 4:00 AM)26% (Aug 18, 5:00 PM)29.45 "Hg (Aug 17, 5:00 PM)
Average88 °F53%29.71 "Hg
* Reported Aug 15 12:00 PM — Aug 30 12:00 PM, Chongqing, Weather by CustomWeather, © 2016

Note: Actual official high and low records may vary slightly from our data, if they occured in-between our weather recording intervals... More about our weather records

Advertising

Chongqing Weather History for the Previous 24 Hours

Scroll right to see more
 ConditionsComfort  
Time TempWeatherWind HumidityBarometerVisibility
12:00 PM
Tue, Aug 30
68 °FLight rain. Partly sunny.6 mph88%29.92 "Hg6 mi
11:00 AM68 °FLight rain. Passing clouds.10 mph88%29.92 "HgN/A
10:00 AM68 °FLight rain. Clear.8 mph83%29.92 "HgN/A
9:00 AM68 °FLight rain. Clear.6 mph83%29.92 "HgN/A
8:00 AM68 °FSunny.6 mph83%29.92 "Hg10 mi
7:00 AM68 °FLight rain. Clear.8 mph83%29.89 "HgN/A
6:00 AM68 °FLight rain. Clear.8 mph83%29.89 "HgN/A
5:00 AM68 °FClear.10 mph83%29.86 "Hg10 mi
4:00 AM68 °FClear.13 mph83%29.86 "Hg10 mi
3:00 AM72 °FPassing clouds.10 mph69%29.86 "HgN/A
2:00 AM73 °FClear.10 mph61%29.86 "Hg10 mi
1:00 AM73 °FClear.15 mph65%29.86 "Hg10 mi
12:00 AM75 °FClear.17 mph61%29.83 "Hg10 mi
11:00 PM
Mon, Aug 29
77 °FClear.15 mph61%29.83 "Hg10 mi
10:00 PM77 °FClear.15 mph61%29.83 "Hg10 mi
9:00 PM79 °FClear.15 mph58%29.80 "Hg10 mi
8:00 PM79 °FClear.15 mph61%29.80 "Hg10 mi
7:00 PM81 °FSunny.15 mph54%29.77 "Hg10 mi
6:00 PM82 °FSunny.15 mph51%29.74 "Hg10 mi
5:00 PM82 °FSunny.13 mph51%29.74 "Hg10 mi
4:00 PM86 °FPassing clouds.13 mph43%29.74 "HgN/A
3:00 PM88 °FPassing clouds.3 mph31%29.74 "HgN/A
2:00 PM90 °FPassing clouds.3 mph33%29.77 "HgN/A
1:00 PM86 °FPassing clouds.6 mph38%29.80 "HgN/A
Weather by CustomWeather, © 2016

See weather overviewHow to use our weather pages